CZ-4C R/B (49010 NORAD) Tracking and Keplerian Element Data

This shows tracking and keplerian element data for the satellite.

Feedback or suggestion? Click here.




ElementValue
Catalog49010
NameCZ-4C R/B
Epoch Orbit422
Epoch Day215.04190952
Epoch Year2021
RAAN218.8163
Inclination98.7007
Eccentricity0.0135861
Argument of Perigee333.8827
Mean Anonmoly25.5558
Mean Motion14.55147263
Decay Rate3.5E-07
L11 49010U 21063C 21215.04190952 .00000035 00000-0 19245-4 0 9990
L22 49010 98.7007 218.8163 0135861 333.8827 25.5558 14.55147263 4220

Live tracking and technical data element details for CZ-4C R/B (NORAD 49010). CZ-4C R/B can be tracked NOW for your location showing map with azimuth and elevation plus other details from your city location.

Track the satellite on the map from your city or location and see movement details for azimuth, elevation, latitude, longitude, range, height, and movement on the map or in text.







IsCatalogInMostPopularTable: catalog: 49010, numindb: 16
Update: records affected: 1



GetName: 49010 CZ-4C R/B

Hit Count: updated at: Sun, 26 Sep 2021 16:10:02 GMT